Wind_Speed
60 63 60 61 62 58 56 57 59 62 63 57 58 60 62 64 67 71 73 80 77 74 73 71 66 65 68 66 67 68 70 73
59 61 60 56 57 61 65 68 70 69 69 71 73 73 75 74 74 73 73 77 78 80 79 81 80 78 75 70 72 74 75 78
57 56 55 61 65 69 73 74 74 75 70 68 71 72 73 81 82 80 80 81 84 89 91 94 95 98 99 99 88 73 76 77
62 59 63 66 66 69 74 77 73 76 75 78 79 81 80 86 85 84 84 85 89 94 102 107 108 111 109 106 101 96 87 62
63 64 66 68 74 78 82 72 77 82 84 86 82 84 89 91 92 89 92 89 94 101 108 114 114 114 113 113 112 113 100 70
67 68 71 78 82 85 84 81 79 80 84 90 94 97 96 95 95 96 99 104 106 111 119 122 125 123 124 121 117 117 104 86
71 74 79 84 86 87 84 81 85 91 93 94 92 94 98 100 102 107 110 108 111 118 126 130 133 133 133 128 121 118 98 85
77 82 86 88 89 89 85 90 92 96 97 99 99 100 102 115 115 112 117 119 123 122 128 141 146 145 139 129 120 107 94 89
85 86 90 94 91 87 87 92 103 100 102 105 105 109 115 121 116 123 128 134 143 148 151 132 126 128 131 121 111 91 94 88
90 92 95 92 85 88 93 101 104 105 102 107 116 123 125 125 130 140 145 147 152 137 115 102 103 105 109 107 96 79 89 87
94 95 86 84 91 96 100 102 104 108 119 124 128 129 137 146 152 151 147 138 119 110 105 97 88 91 97 103 74 81 94 75
93 86 90 96 98 93 98 104 112 121 129 138 140 144 147 152 153 139 125 114 103 94 86 75 71 73 78 82 74 82 77 71
93 97 99 97 96 100 108 115 125 130 139 142 149 153 153 141 127 116 103 84 77 69 56 62 65 65 68 73 68 65 81 72
98 100 101 103 107 114 119 126 132 138 145 151 152 153 147 117 103 90 77 64 58 52 49 50 51 52 51 59 58 62 65 63
101 104 105 114 117 121 129 131 139 147 151 150 150 144 120 95 83 75 61 54 49 42 37 39 43 43 45 48 49 57 64 63
106 109 115 122 127 132 132 138 151 153 151 151 140 114 92 78 70 63 52 47 40 35 33 35 39 35 52 56 51 54 56 57
113 118 124 130 136 137 140 149 157 154 148 136 108 88 75 65 57 51 44 39 32 36 34 34 39 39 42 41 55 49 43 47
120 126 127 136 137 143 150 157 159 149 135 117 88 77 65 55 46 39 36 33 33 32 35 37 37 43 49 51 57 45 48 56
128 130 136 138 150 153 160 155 151 140 119 93 78 69 57 46 38 34 33 31 30 30 37 46 43 44 48 46 44 44 46 59
Wind_Direction
288 291 297 303 305 304 304 304 303 301 297 291 291 289 285 287 288 289 291 295 293 291 290 287 277 278 277 276 278 276 276 276
294 299 302 301 304 303 304 305 301 298 295 294 296 298 296 299 298 298 297 296 296 294 291 293 288 286 284 275 283 276 276 275
300 299 301 302 305 307 309 307 308 305 300 300 301 304 304 309 309 305 305 302 301 305 306 305 304 302 303 302 295 290 276 274
299 300 302 304 307 305 306 308 307 304 303 300 298 302 300 308 308 304 302 302 300 302 304 305 304 303 303 304 302 298 300 276
298 298 301 302 302 306 310 308 305 307 308 311 314 311 307 308 303 301 298 297 299 298 299 301 299 299 299 299 298 299 299 288
295 298 300 301 303 303 303 302 308 305 304 306 307 309 309 305 302 303 302 298 296 296 299 299 296 295 295 295 295 295 292 285
290 292 294 294 297 299 299 302 303 306 305 304 303 305 304 300 298 298 297 292 291 292 294 295 294 292 291 289 288 289 284 276
292 292 294 299 300 303 301 305 305 305 304 302 300 298 301 304 302 297 293 290 290 288 286 286 289 287 285 283 281 279 274 274
290 293 297 300 303 303 298 302 306 303 301 298 296 300 299 300 298 295 294 291 289 290 291 287 279 275 275 274 273 265 265 267
291 294 298 303 305 300 300 303 303 297 298 301 301 303 305 300 297 299 298 295 292 292 284 276 267 263 263 262 261 259 260 260
300 302 304 301 298 299 300 300 302 303 305 306 307 304 303 303 304 300 298 295 291 286 281 279 273 264 260 257 260 256 255 252
301 301 296 296 301 302 302 303 302 304 306 307 308 307 304 300 301 300 296 292 289 285 280 276 267 260 258 253 243 250 247 247
300 299 299 304 301 300 302 302 304 305 306 307 307 305 302 305 304 295 290 288 283 281 272 260 257 254 249 246 229 223 248 245
298 295 298 300 299 300 299 301 303 304 308 308 306 305 306 306 299 293 288 286 282 278 265 257 253 245 241 234 218 224 237 239
294 292 293 296 301 301 302 303 308 308 309 310 306 306 306 300 297 290 287 284 281 271 266 262 258 251 227 196 201 224 241 239
293 292 294 299 299 301 302 302 305 307 311 311 307 307 300 298 293 288 284 282 276 277 268 259 252 222 200 201 209 225 237 231
293 296 297 298 300 300 300 305 308 311 311 309 309 306 299 296 291 285 280 276 272 270 260 253 256 220 194 203 218 227 237 220
294 294 296 300 300 300 305 305 311 311 309 311 310 305 300 295 288 281 275 267 262 251 242 250 241 207 203 213 225 232 216 202
295 295 297 299 302 303 307 309 314 311 311 309 310 303 297 293 279 270 259 259 252 234 231 229 234 228 224 233 237 231 214 201
Height
10737 10734 10734 10728 10722 10723 10724 10720 10716 10714 10708 10704 10701 10699 10698 10695 10693 10690 10682 10676 10674 10673 10674 10673 10674 10673 10670 10667 10667 10666 10662 10659
10726 10722 10723 10718 10714 10708 10711 10711 10706 10703 10698 10691 10685 10679 10676 10672 10670 10669 10666 10660 10653 10652 10651 10649 10650 10651 10652 10651 10649 10650 10648 10644
10715 10708 10707 10704 10702 10696 10688 10686 10685 10684 10682 10678 10672 10665 10658 10651 10647 10643 10640 10638 10634 10627 10622 10622 10623 10621 10622 10625 10627 10629 10631 10628
10705 10700 10695 10690 10687 10684 10677 10668 10663 10662 10664 10662 10657 10652 10645 10638 10631 10625 10618 10616 10612 10606 10601 10596 10592 10591 10593 10592 10594 10596 10600 10609
10694 10690 10685 10680 10674 10671 10666 10658 10651 10642 10631 10632 10631 10628 10622 10617 10611 10607 10603 10596 10591 10588 10583 10579 10573 10568 10565 10568 10570 10568 10575 10581
10680 10676 10672 10668 10666 10664 10657 10651 10644 10635 10624 10614 10606 10600 10595 10590 10585 10582 10579 10574 10566 10558 10553 10550 10547 10546 10543 10542 10544 10542 10546 10553
10668 10663 10658 10657 10655 10651 10645 10637 10629 10620 10613 10605 10597 10591 10584 10578 10570 10564 10558 10551 10542 10536 10525 10514 10512 10510 10515 10515 10517 10518 10517 10527
10648 10645 10642 10641 10635 10627 10621 10612 10606 10598 10590 10584 10578 10570 10562 10557 10546 10534 10527 10521 10521 10520 10510 10498 10481 10474 10473 10474 10486 10490 10493 10499
10632 10629 10627 10622 10615 10608 10600 10591 10583 10576 10570 10563 10551 10540 10536 10530 10518 10503 10494 10479 10464 10463 10459 10458 10450 10434 10430 10433 10445 10461 10465 10471
10614 10612 10606 10601 10591 10582 10576 10570 10560 10551 10543 10538 10530 10517 10494 10488 10482 10471 10448 10430 10410 10398 10393 10400 10397 10389 10387 10393 10412 10432 10437 10448
10586 10583 10578 10574 10568 10564 10559 10546 10533 10524 10517 10503 10495 10482 10468 10442 10426 10416 10397 10375 10360 10353 10348 10350 10351 10349 10353 10363 10389 10408 10416 10425
10568 10564 10558 10552 10549 10541 10530 10521 10509 10495 10479 10468 10456 10444 10426 10406 10382 10366 10345 10334 10323 10317 10316 10316 10316 10317 10321 10335 10363 10375 10391 10402
10543 10534 10526 10525 10519 10508 10502 10491 10480 10467 10457 10443 10426 10404 10381 10363 10341 10318 10307 10306 10296 10293 10292 10287 10287 10292 10300 10314 10338 10358 10373 10380
10519 10508 10506 10501 10493 10489 10480 10467 10454 10440 10423 10407 10385 10359 10331 10320 10299 10288 10283 10282 10275 10275 10270 10269 10271 10278 10291 10299 10317 10339 10348 10360
10504 10495 10489 10477 10473 10462 10454 10441 10420 10410 10393 10370 10344 10321 10301 10283 10271 10264 10266 10261 10259 10256 10254 10254 10256 10264 10272 10284 10300 10315 10326 10342
10483 10474 10465 10458 10444 10434 10422 10410 10393 10377 10359 10335 10308 10288 10271 10258 10251 10248 10247 10244 10241 10239 10240 10244 10248 10256 10265 10274 10282 10301 10314 10326
10459 10452 10442 10432 10422 10411 10399 10382 10362 10343 10319 10297 10277 10263 10249 10240 10236 10232 10233 10233 10230 10229 10230 10235 10241 10250 10256 10266 10275 10291 10299 10309
10437 10428 10416 10405 10389 10379 10367 10347 10328 10305 10283 10264 10250 10239 10230 10224 10221 10220 10222 10222 10221 10222 10225 10229 10235 10244 10248 10256 10265 10277 10284 10295
10410 10398 10387 10374 10357 10348 10333 10315 10293 10272 10258 10238 10228 10220 10213 10212 10209 10210 10211 10213 10214 10215 10218 10223 10228 10235 10242 10248 10255 10267 10274 10283